Temperature
14 14 14 14 14 13 13 13 12 12 11 11 11 11 10 10 10 10 9 9 9 9 8 8 8 8 7 7 7 6 6 6 6 5 5 6 6 7 7 6 6 7 6
13 13 13 13 13 13 13 13 12 12 12 11 11 10 10 10 10 9 9 9 9 8 8 8 8 7 7 7 6 6 6 6 5 4 4 4 4 5 5 5 5 5 5
14 13 13 13 13 13 13 13 12 12 12 11 11 10 10 10 10 10 9 9 8 8 8 7 7 7 6 6 6 5 5 5 5 4 3 3 3 3 3 3 4 4 4
14 14 13 13 13 13 12 12 12 12 11 11 11 10 10 10 9 9 9 8 8 7 7 7 6 6 6 5 5 5 4 4 4 4 4 3 2 2 1 2 2 2 3
14 14 13 13 12 12 12 12 12 11 11 11 10 10 10 9 9 8 8 8 7 7 7 6 6 6 5 5 4 4 4 3 3 3 3 2 2 2 1 1 1 2 2
13 13 13 12 12 12 12 11 11 11 11 10 10 10 9 9 8 8 7 7 7 7 6 6 5 5 4 4 4 4 3 3 3 2 2 2 1 1 1 0 0 0 1
13 13 12 12 12 12 11 11 11 11 10 10 9 9 9 8 8 7 7 6 6 6 6 5 5 4 4 4 3 3 3 2 2 2 1 1 1 1 0 0 -0 -1 -0
13 13 13 12 12 11 11 11 10 10 10 9 9 8 8 7 7 6 6 6 5 5 5 4 4 4 3 3 2 2 2 2 1 1 1 0 0 0 -0 -0 -1 -1 -1
13 13 13 12 12 11 11 10 10 10 9 9 8 8 7 7 6 6 5 5 5 4 4 4 3 3 3 2 2 1 1 1 1 0 0 -0 -0 -1 -1 -1 -1 -2 -2
12 13 12 12 11 11 10 10 9 9 8 8 8 7 7 6 6 5 5 4 4 4 3 3 3 2 2 2 1 1 1 0 0 -0 -1 -1 -1 -1 -1 -2 -2 -2 -2
13 12 12 11 11 10 10 9 9 8 8 7 7 7 6 6 5 5 4 4 3 3 3 2 2 2 1 1 0 0 -0 -1 -1 -1 -1 -2 -2 -2 -2 -2 -2 -3 -3
13 12 12 11 10 10 9 9 8 8 7 7 6 6 5 5 4 4 4 3 3 2 2 2 1 1 1 0 -0 -1 -1 -1 -2 -2 -2 -2 -3 -3 -3 -3 -3 -3 -3
12 12 11 11 10 9 9 8 8 7 7 6 6 5 5 4 4 4 3 3 2 2 1 1 0 0 -0 -1 -1 -1 -2 -2 -2 -3 -3 -3 -3 -3 -3 -4 -4 -4 -4
12 11 11 10 10 9 8 8 7 7 6 6 5 5 4 4 3 3 3 2 2 1 1 0 -0 -1 -1 -1 -2 -2 -2 -3 -3 -3 -3 -3 -4 -4 -4 -4 -4 -4 -4
11 11 10 10 9 8 8 7 7 6 6 5 5 4 4 3 3 2 2 1 1 0 -0 -0 -1 -1 -2 -2 -2 -3 -3 -3 -3 -4 -4 -4 -4 -4 -4 -4 -4 -4 -4
11 11 10 9 9 8 7 7 6 6 5 4 4 3 3 3 2 2 1 1 0 -0 -1 -1 -1 -2 -2 -2 -3 -3 -4 -4 -4 -4 -4 -4 -5 -5 -5 -5 -5 -5 -5
11 10 10 9 8 8 7 6 6 5 4 4 3 3 2 2 2 1 1 0 -0 -1 -1 -1 -2 -2 -2 -3 -3 -4 -4 -4 -5 -5 -5 -5 -5 -5 -5 -5 -5 -5 -5
10 10 9 8 8 7 6 5 5 4 4 3 3 2 2 1 1 0 0 -0 -1 -1 -2 -2 -2 -3 -3 -3 -4 -4 -5 -5 -5 -5 -5 -5 -5 -5 -5 -5 -5 -5 -5
10 9 8 8 7 6 5 5 4 4 3 2 2 2 1 1 0 -0 -1 -1 -2 -2 -2 -3 -3 -3 -3 -4 -4 -5 -5 -5 -5 -5 -5 -6 -6 -6 -6 -6 -6 -6 -5
9 8 7 7 6 5 4 4 3 3 2 2 1 1 0 -0 -0 -1 -1 -2 -2 -3 -3 -3 -3 -4 -4 -4 -5 -5 -6 -6 -6 -6 -6 -6 -6 -6 -6 -6 -6 -6 -6
8 7 6 6 5 4 4 3 3 2 1 1 1 0 -0 -0 -1 -1 -2 -2 -3 -3 -3 -4 -4 -4 -4 -5 -5 -6 -6 -6 -6 -6 -6 -6 -6 -6 -6 -6 -6 -6 -6
6 6 5 5 4 3 3 2 2 1 1 0 0 -0 -1 -1 -2 -2 -2 -3 -3 -4 -4 -4 -5 -5 -5 -5 -6 -6 -6 -6 -6 -6 -6 -6 -6 -6 -6 -6 -6 -6 -6
5 5 4 4 3 3 2 2 1 1 0 -0 -1 -1 -1 -2 -2 -3 -3 -4 -4 -5 -5 -6 -6 -6 -6 -6 -6 -7 -7 -7 -7 -7 -7 -6 -6 -6 -6 -6 -7 -7 -7
4 4 3 3 3 2 2 1 0 -0 -1 -1 -1 -2 -2 -2 -3 -3 -4 -5 -5 -5 -6 -6 -6 -6 -7 -7 -7 -7 -7 -7 -7 -7 -7 -7 -7 -7 -7 -7 -7 -7 -7
3 3 2 2 2 1 1 1 -0 -1 -1 -2 -2 -2 -3 -3 -4 -4 -5 -5 -6 -6 -6 -7 -7 -7 -7 -7 -7 -7 -7 -7 -7 -7 -7 -7 -7 -7 -7 -7 -8 -8 -8
3 2 2 1 1 1 0 -0 -1 -1 -2 -2 -3 -3 -4 -4 -5 -5 -5 -5 -6 -6 -7 -7 -7 -7 -7 -7 -7 -7 -7 -7 -7 -7 -8 -8 -8 -8 -8 -8 -8 -8 -8
Wind_Speed
4 4 5 6 7 6 7 6 6 5 5 3 3 2 1 1 1 2 3 3 5 5 5 5 5 4 3 5 5 4 5 4 3 4 6 7 8 9 8 7 7 10 15
6 5 5 5 5 5 5 6 6 5 5 4 3 2 2 1 1 3 4 5 6 6 5 5 4 4 3 5 5 4 4 4 2 3 5 5 5 4 6 6 7 8 10
11 8 6 5 5 5 4 5 5 5 5 4 3 3 3 3 2 2 3 5 7 7 7 6 5 4 3 5 6 5 5 5 4 3 4 5 5 5 5 6 7 7 6
10 9 8 6 5 4 4 5 5 5 4 5 4 3 2 0 2 2 3 5 7 7 8 7 6 5 3 5 6 5 4 5 5 4 5 7 6 6 6 4 5 7 8
12 11 9 8 6 5 5 5 5 4 4 4 5 4 2 1 1 2 3 4 5 7 8 8 6 5 4 5 6 6 6 5 6 6 5 6 6 7 9 11 7 6 6
11 10 9 7 6 5 4 4 5 3 3 4 4 3 2 1 2 3 3 4 4 4 7 8 7 6 5 6 7 7 8 7 8 7 6 6 6 6 8 11 11 10 7
12 11 11 9 8 7 6 5 5 3 2 3 2 2 2 2 2 3 3 4 4 4 6 6 6 6 7 8 7 7 8 8 8 9 8 8 9 8 9 12 13 13 8
12 13 13 11 9 8 7 6 5 4 3 2 2 1 1 1 2 3 3 4 4 5 6 7 7 8 9 9 7 7 8 8 8 10 10 8 8 8 8 9 12 16 12
13 13 12 11 10 9 8 7 6 4 3 3 2 1 1 2 3 4 4 4 5 5 6 7 7 8 9 8 7 7 9 8 8 9 10 9 8 8 8 8 9 11 17
12 12 11 11 10 8 7 6 6 5 4 3 2 2 2 3 3 4 5 6 6 5 7 7 8 8 8 8 8 8 8 9 9 8 9 9 8 8 8 8 8 9 13
14 12 11 9 9 7 7 6 5 4 3 3 2 2 3 3 4 4 6 7 7 7 8 8 9 9 9 9 9 9 10 11 11 10 10 11 10 9 8 8 8 9 10
11 10 10 9 8 7 6 6 5 4 4 3 3 3 4 4 5 6 7 7 8 8 8 9 9 10 10 10 10 11 11 11 12 12 11 12 11 11 9 8 9 10 10
9 8 8 9 8 8 6 5 5 4 4 3 3 3 4 5 7 8 8 8 8 9 9 9 10 11 11 11 11 11 12 12 12 12 12 12 11 12 10 10 11 10 12
10 10 9 8 7 7 6 5 4 4 3 3 3 5 6 7 8 8 8 8 9 9 10 10 10 11 11 11 12 12 12 12 12 12 12 12 12 12 12 12 12 12 12
9 10 9 8 7 6 5 4 4 3 3 3 4 6 7 7 8 8 9 9 9 10 10 10 11 11 10 11 12 11 11 11 12 12 11 12 15 19 17 15 11 11 11
10 9 8 8 7 6 5 4 4 4 3 4 6 6 7 7 8 8 9 9 9 10 10 10 11 11 12 20 25 21 12 11 11 12 11 12 15 19 24 26 25 21 16
9 9 9 8 7 7 6 5 4 3 3 4 6 7 7 8 9 9 9 9 10 9 10 11 11 12 14 24 26 26 17 12 10 11 11 12 13 19 12 19 24 22 25
8 8 7 6 5 4 4 3 3 3 4 5 6 7 8 8 9 8 9 10 9 9 10 11 12 12 15 24 26 27 16 11 11 11 12 12 12 13 15 13 14 14 14
7 6 6 5 4 4 3 2 2 3 4 6 7 8 8 8 9 9 10 10 9 10 10 11 12 12 15 23 26 26 11 10 11 11 12 13 12 21 25 17 14 14 13
6 5 5 4 3 3 2 2 3 4 6 7 8 8 8 9 10 10 11 9 9 11 11 11 11 12 13 21 25 25 10 11 11 10 11 18 20 23 25 16 13 15 13
5 5 5 3 3 2 2 3 4 6 7 7 8 8 9 9 10 10 9 10 10 11 11 13 12 11 14 19 23 25 13 11 12 11 10 10 22 26 26 23 14 18 17
4 4 3 2 2 2 2 4 6 7 7 7 8 9 9 9 10 10 10 10 10 11 12 12 12 10 11 16 20 25 24 22 14 12 10 12 24 26 26 20 19 24 20
3 3 3 2 3 3 3 5 7 7 7 8 9 10 10 9 9 10 11 10 9 10 11 11 12 12 9 11 23 25 26 26 17 13 21 24 27 25 17 18 22 18 9
2 2 2 2 4 5 5 6 7 7 7 9 10 9 10 10 9 9 9 9 10 10 11 12 12 12 10 9 9 11 14 18 16 14 18 24 23 18 16 15 12 8 8
2 2 3 4 6 6 7 7 7 7 8 9 10 10 9 10 10 9 9 11 10 12 14 11 11 13 14 15 24 20 13 11 13 15 11 8 8 7 7 8 8 7 7
2 3 4 5 7 7 8 8 8 7 8 9 9 8 8 9 9 10 12 16 18 24 25 24 22 17 22 28 28 28 27 27 26 18 9 9 9 9 9 9 8 7 8
Wind_Direction
147 110 94 91 90 88 93 96 103 106 109 104 108 104 88 34 15 348 325 313 308 306 296 287 289 287 272 270 271 272 279 278 276 294 294 279 264 260 258 258 264 269 272
149 131 111 98 99 107 103 105 110 112 112 115 119 123 120 85 308 326 332 323 317 311 301 289 284 284 282 288 284 273 280 281 267 266 303 306 308 291 267 267 264 265 271
164 157 140 127 120 123 130 125 120 114 110 109 98 73 55 30 6 345 325 320 318 312 304 294 285 281 270 275 278 272 263 276 279 221 238 283 285 306 268 253 254 262 269
164 161 156 151 149 152 139 127 123 116 113 111 111 113 120 171 265 283 300 315 323 317 309 299 291 283 275 275 276 270 256 257 274 270 232 238 258 281 297 270 271 272 268
171 168 165 162 156 151 140 132 121 113 111 108 118 117 121 203 284 314 322 322 322 322 316 307 298 287 280 275 277 279 268 253 256 260 260 259 258 245 267 286 278 268 256
172 165 160 152 149 147 140 136 128 123 119 115 118 130 148 225 307 315 317 316 313 313 315 311 299 290 283 277 276 272 270 264 260 258 253 254 257 260 261 279 285 281 270
171 166 164 165 163 162 161 155 148 151 148 133 138 163 189 215 250 276 288 300 306 305 303 307 299 292 286 284 280 277 274 270 266 263 262 256 256 257 263 276 286 286 277
177 175 175 172 171 171 170 167 166 171 172 164 182 198 210 222 251 265 272 280 282 285 290 298 296 293 292 290 284 279 274 273 266 269 267 267 264 259 258 265 282 291 289
183 181 178 175 174 175 177 176 172 174 184 185 190 218 240 249 267 279 281 282 282 287 294 297 294 293 291 288 285 281 278 276 270 267 267 268 267 262 261 261 261 277 291
186 184 182 179 178 177 175 172 171 178 186 191 203 219 250 266 274 285 290 290 290 289 295 294 291 289 286 284 283 282 279 278 275 270 269 268 269 266 262 261 262 261 275
190 187 184 180 174 168 167 170 175 175 188 204 217 239 267 278 284 283 283 284 285 287 288 288 288 289 288 285 283 281 283 280 278 276 275 272 270 269 266 262 263 265 268
188 182 175 168 168 170 171 175 180 187 201 207 219 245 267 280 285 284 284 283 283 283 283 285 287 287 287 284 281 283 284 280 280 277 275 275 276 270 267 265 266 268 266
178 171 167 171 175 176 177 182 187 195 203 207 227 260 275 280 280 281 282 283 282 285 286 286 285 285 285 283 280 278 278 276 274 273 272 273 273 273 270 267 270 270 272
176 173 175 177 177 177 180 184 194 199 206 216 241 263 270 272 274 277 280 280 281 283 284 283 282 283 284 284 281 279 276 273 272 271 269 269 267 268 270 272 269 270 271
178 179 178 176 174 176 182 186 199 211 214 231 254 264 270 274 277 279 280 281 281 282 281 284 285 284 288 286 285 284 278 274 275 274 270 268 274 278 282 282 276 273 274
185 179 173 172 178 183 188 196 211 224 225 242 260 270 276 279 280 281 282 283 283 282 282 283 285 286 291 299 304 303 291 282 280 281 276 275 281 284 288 289 290 288 284
180 176 176 179 184 189 190 200 217 230 241 256 269 276 278 281 282 285 287 285 284 282 284 282 283 283 287 299 304 304 303 291 284 281 281 286 285 292 284 285 287 285 283
173 172 170 173 179 181 188 196 216 237 254 267 275 278 281 282 284 285 284 284 283 283 285 285 284 283 289 301 306 307 303 289 281 277 276 276 277 278 283 275 273 270 271
165 164 165 164 162 174 182 188 244 259 268 273 277 280 280 283 285 286 285 285 287 288 286 286 285 285 291 300 305 305 294 288 283 279 276 278 275 282 289 288 282 280 276
139 141 140 137 152 181 175 200 257 268 270 272 275 278 278 279 282 283 284 284 286 288 290 289 285 284 285 296 304 305 296 290 287 282 275 283 285 287 290 287 282 282 281
131 132 133 148 185 197 188 245 265 266 268 273 277 279 278 278 280 281 282 286 290 291 291 291 288 283 285 296 302 304 302 291 290 289 284 277 288 290 290 290 285 284 289
130 136 143 185 227 223 222 259 267 269 273 277 280 282 282 285 291 286 288 287 289 293 293 294 294 288 285 294 299 303 303 302 298 294 288 283 290 291 291 293 291 293 299
152 154 165 219 267 262 244 260 271 277 280 282 282 285 286 283 283 284 289 292 290 291 294 294 296 296 288 290 301 303 303 302 301 292 292 295 296 297 295 292 294 297 293
169 169 183 247 275 277 271 263 274 279 280 282 285 286 288 289 285 284 285 288 289 289 291 294 295 297 295 289 288 288 294 298 298 294 293 296 294 291 287 290 291 281 273
199 201 226 254 268 277 278 277 277 279 281 283 286 287 285 286 290 286 281 285 277 281 291 291 291 296 298 296 302 304 301 299 294 302 297 291 288 279 274 274 273 270 272
221 248 259 265 272 276 278 280 278 277 281 288 288 287 288 289 290 293 295 290 290 295 296 297 297 296 296 302 305 307 308 309 309 310 303 298 293 289 286 284 281 276 273
Height
1537 1538 1539 1539 1540 1541 1542 1543 1544 1546 1547 1548 1549 1550 1550 1550 1550 1550 1549 1548 1547 1546 1544 1542 1541 1539 1537 1535 1533 1530 1528 1526 1524 1519 1514 1512 1510 1508 1508 1507 1506 1505 1504
1535 1537 1538 1539 1540 1541 1542 1543 1544 1545 1546 1547 1548 1548 1548 1548 1548 1548 1547 1546 1544 1542 1541 1539 1537 1535 1532 1530 1529 1526 1523 1521 1520 1516 1510 1504 1501 1500 1500 1499 1499 1498 1498
1532 1534 1536 1538 1539 1540 1541 1542 1543 1544 1545 1546 1546 1547 1547 1546 1546 1545 1544 1543 1541 1539 1537 1535 1533 1531 1528 1526 1524 1522 1519 1516 1514 1513 1511 1505 1497 1494 1490 1491 1491 1490 1490
1530 1532 1534 1536 1538 1539 1540 1541 1542 1543 1544 1544 1545 1545 1544 1544 1543 1542 1541 1539 1538 1536 1534 1531 1529 1526 1524 1522 1519 1517 1514 1511 1508 1507 1505 1503 1498 1493 1483 1482 1483 1483 1482
1527 1529 1532 1534 1536 1538 1539 1540 1541 1542 1542 1543 1543 1543 1542 1542 1541 1539 1538 1536 1534 1532 1530 1527 1524 1522 1519 1517 1514 1512 1509 1506 1503 1500 1498 1495 1492 1489 1483 1474 1472 1472 1472
1525 1528 1530 1533 1535 1536 1538 1539 1540 1541 1541 1541 1541 1541 1540 1539 1538 1536 1534 1532 1530 1528 1525 1523 1520 1517 1514 1511 1509 1506 1503 1500 1497 1494 1491 1489 1485 1482 1478 1470 1464 1462 1461
1521 1524 1527 1530 1532 1534 1536 1537 1538 1539 1539 1539 1539 1538 1537 1536 1535 1533 1530 1528 1525 1523 1520 1518 1515 1512 1509 1506 1502 1499 1496 1493 1490 1487 1484 1481 1478 1475 1472 1466 1458 1453 1450
1518 1521 1524 1527 1529 1532 1534 1535 1536 1537 1537 1537 1536 1536 1535 1533 1531 1529 1527 1524 1521 1518 1515 1512 1509 1506 1503 1499 1496 1492 1489 1485 1482 1479 1476 1473 1470 1468 1464 1460 1455 1445 1440
1515 1518 1521 1524 1527 1529 1531 1532 1533 1534 1534 1534 1534 1533 1531 1530 1527 1525 1523 1520 1516 1513 1510 1507 1503 1500 1496 1493 1489 1484 1481 1478 1474 1471 1467 1464 1461 1459 1456 1453 1450 1444 1433
1512 1515 1518 1521 1524 1526 1528 1530 1531 1531 1531 1531 1530 1529 1528 1526 1523 1521 1518 1515 1511 1508 1504 1500 1497 1493 1489 1485 1481 1477 1473 1469 1466 1462 1459 1455 1452 1449 1447 1444 1441 1438 1431
1508 1511 1515 1518 1521 1523 1525 1526 1527 1527 1528 1527 1526 1525 1523 1521 1519 1516 1513 1509 1506 1502 1498 1494 1490 1486 1482 1478 1473 1469 1465 1461 1457 1454 1450 1446 1444 1440 1437 1435 1432 1428 1424
1505 1508 1512 1515 1517 1519 1521 1522 1523 1524 1524 1523 1522 1521 1518 1516 1513 1510 1507 1504 1500 1496 1492 1488 1483 1479 1474 1470 1465 1461 1456 1452 1448 1445 1441 1438 1435 1431 1428 1425 1422 1418 1415
1503 1506 1509 1511 1514 1516 1517 1519 1519 1520 1519 1519 1517 1516 1513 1511 1508 1504 1501 1497 1493 1489 1485 1481 1476 1471 1467 1462 1457 1452 1448 1444 1440 1437 1433 1429 1426 1422 1419 1415 1412 1408 1405
1500 1502 1505 1508 1510 1512 1514 1515 1515 1515 1515 1514 1512 1510 1508 1505 1502 1498 1495 1491 1487 1482 1478 1473 1469 1464 1459 1454 1449 1444 1439 1435 1431 1428 1424 1421 1417 1413 1410 1406 1402 1399 1395
1496 1499 1501 1504 1506 1508 1510 1511 1511 1511 1510 1508 1507 1504 1502 1499 1496 1492 1488 1484 1480 1475 1471 1465 1461 1456 1451 1446 1441 1436 1431 1426 1422 1418 1415 1412 1408 1404 1401 1398 1394 1391 1387
1493 1495 1498 1501 1503 1504 1506 1506 1506 1506 1505 1503 1501 1499 1496 1492 1489 1485 1481 1477 1472 1468 1463 1458 1452 1447 1443 1438 1433 1428 1423 1418 1414 1409 1405 1402 1398 1395 1392 1389 1386 1383 1380
1490 1492 1495 1497 1499 1501 1502 1502 1502 1501 1499 1498 1495 1492 1489 1486 1482 1478 1474 1469 1464 1459 1454 1449 1444 1438 1434 1429 1424 1420 1415 1409 1405 1400 1396 1392 1389 1386 1382 1378 1375 1372 1370
1487 1490 1492 1494 1496 1497 1498 1498 1497 1496 1494 1492 1489 1486 1483 1479 1475 1471 1466 1461 1456 1451 1445 1440 1435 1430 1425 1421 1416 1411 1405 1400 1395 1392 1388 1383 1379 1376 1373 1368 1364 1362 1359
1486 1488 1490 1491 1493 1493 1493 1493 1492 1490 1488 1486 1483 1480 1476 1472 1467 1463 1458 1453 1448 1442 1437 1431 1426 1421 1416 1412 1407 1402 1396 1391 1386 1382 1379 1375 1370 1367 1365 1361 1356 1352 1349
1484 1485 1487 1488 1489 1489 1489 1488 1486 1484 1482 1479 1476 1473 1469 1465 1460 1455 1450 1445 1439 1433 1428 1422 1418 1412 1407 1403 1398 1394 1388 1382 1377 1373 1369 1367 1363 1359 1357 1353 1348 1344 1340
1482 1483 1484 1485 1485 1485 1484 1482 1481 1479 1476 1473 1469 1466 1462 1457 1452 1447 1442 1437 1431 1425 1419 1413 1408 1404 1399 1394 1390 1385 1381 1375 1369 1365 1360 1357 1354 1351 1347 1344 1340 1336 1333
1480 1480 1481 1481 1481 1480 1479 1477 1475 1473 1469 1466 1462 1458 1454 1450 1445 1439 1433 1428 1422 1416 1410 1404 1398 1394 1390 1386 1381 1377 1373 1368 1363 1357 1352 1348 1345 1342 1338 1335 1331 1328 1325
1477 1477 1478 1477 1477 1476 1474 1471 1469 1466 1462 1458 1454 1450 1446 1442 1437 1431 1425 1419 1414 1408 1402 1396 1389 1384 1380 1376 1373 1368 1364 1359 1355 1349 1344 1340 1337 1333 1329 1326 1323 1320 1316
1474 1474 1474 1473 1472 1471 1469 1466 1463 1459 1455 1451 1447 1442 1437 1432 1428 1423 1417 1411 1406 1400 1394 1388 1382 1376 1371 1367 1363 1359 1354 1350 1345 1340 1335 1331 1327 1324 1320 1317 1314 1311 1308
1471 1471 1470 1468 1467 1465 1463 1460 1456 1452 1448 1443 1439 1434 1429 1424 1418 1413 1409 1403 1398 1394 1388 1382 1376 1370 1364 1360 1357 1353 1347 1342 1337 1332 1327 1322 1318 1315 1311 1308 1305 1303 1300
1467 1466 1465 1463 1461 1459 1456 1453 1450 1445 1441 1435 1431 1426 1421 1415 1410 1404 1398 1393 1390 1385 1380 1375 1370 1363 1358 1353 1348 1344 1339 1334 1330 1325 1319 1315 1311 1307 1304 1300 1297 1295 1293